Regional Weather Roundup
Issued by NWS Portland, ME

Current Version | Previous Version | Text Only | Print | Product List | Glossary Off
Versions: 1 2 3 4 5 6 7 8 9 10 11 12 13 14 15 16 17 18 19 20 21 22 23 24 25 26 27 28 29 30 31 32 33 34 35 36 37 38 39 40 41 42 43 44 45 46 47 48 49 50
000 ASUS41 KGYX 250110 RWRGYX WEATHER ROUNDUP FOR MAINE AND NEW HAMPSHIRE NATIONAL WEATHER SERVICE GRAY ME 900 PM EDT MON JUL 24 2017 MEZ002-005-006-010-012-015-018-020-021-024-026-027-029-250200- MAINE CITY SKY/WX TMP DP RH WIND PRES REMARKS PORTLAND CLOUDY 57 52 83 NE8 30.00S SANFORD N/A 55 53 93 NE13 29.99S BAR HARBOR RAIN 55 53 93 NE8 30.04R WISCASSET CLOUDY 57 55 93 CALM 30.02R ROCKLAND LGT RAIN 54 53 97 NE9 30.01R FRYEBURG LGT RAIN 56 55 97 N3 30.03S LEWISTONAUBURN CLOUDY 56 53 90 N5 30.02S AUGUSTA CLOUDY 56 52 86 NE6 30.03R WATERVILLE CLOUDY 57 53 86 VRB3 30.01S BANGOR CLOUDY 59 54 83 E3 30.03S GREENVILLE N/A N/A N/A N/A MISG 30.04R MILLINOCKET LGT RAIN 58 55 90 CALM 30.06R HOULTON CLOUDY 61 57 87 CALM 30.01F PRESQUE ISLE CLOUDY 59 56 89 CALM 30.05R FRENCHVILLE CLOUDY 60 44 55 N3 30.05S CARIBOU CLOUDY 64 50 60 CALM 30.03S $$ NHZ002-005-008-009-011-012-014-250200- NEW HAMPSHIRE CITY SKY/WX TMP DP RH WIND PRES REMARKS PORTSMOUTH DRIZZLE 56 54 91 NE10 29.96R ROCHESTER CLOUDY 55 51 86 NE12G17 29.98R NASHUA CLOUDY 56 55 97 NE7 29.98R MANCHESTER CLOUDY 57 52 83 NE9 29.96R CONCORD CLOUDY 56 53 90 N6 29.99R LACONIA CLOUDY 56 52 86 NE9G23 30.00R PLYMOUTH CLOUDY 55 52 90 CALM 29.99F BERLIN CLOUDY 55 50 83 CALM 30.03S WHITEFIELD LGT RAIN 54 47 77 E8 30.01R JAFFREY CLOUDY 54 54 100 VRB5 29.98R FOG KEENE CLOUDY 56 54 93 CALM 29.99R LEBANON CLOUDY 57 55 93 CALM 29.99R MT WASHINGTON LGT RAIN 37 37 100 SE17 N/A VSB 1/8 $$ VTZ005-007-008-250200- VERMONT CITY SKY/WX TMP DP RH WIND PRES REMARKS ST JOHNSBURY N/A 55 53 93 MISG 29.98R MONTPELIER LGT RAIN 55 54 96 CALM 30.03R BURLINGTON CLOUDY 60 56 86 SE5 29.95S $$ MAZ007-012-024-CTZ003-RIZ002-NYZ038-NYZ072-250200- SOUTHERN NEW ENGLAND AND NY CITY SKY/WX TMP DP RH WIND PRES REMARKS BOSTON LGT RAIN 58 58 100 N13 29.93R FOG WORCESTER CLOUDY 54 52 93 N12G21 29.96R NANTUCKET MOCLDY 67 66 97 NW12 29.80R PROVIDENCE DRIZZLE 59 59 100 N13 29.92R HARTFORD CLOUDY 58 56 93 N9 29.94R ALBANY CLOUDY 64 56 75 CALM 29.92R NEW YORK CITY LGT RAIN 67 61 81 NE13 29.88R $$ ANZ081-ANZ082-ANZ150-NHZ014-MEZ023>029-250200- COASTAL MARINE OBSERVATIONS STATION/POSITION TIME TEMP WIND PRES WAVE AIR SEA DIR/SP/G HT/PER (UTC) (F) (DEG/KT/KT) (MB) (FT/S) MOUNT DESERT ROC 0100 53 1015.3F MATINICUS ROCK 0000 53 60/ 24/ 27 1014.4F ISLE OF SHOALS 0000 58 30/ 26/ 28 1012.8R JEFFREYS LEDGE 0006 64 N/A 8/ 7 CASHES LEDGE BUO 2350 56 62 1012.2 6/ 6 GEORGES BANK BUO 2350 69 60 1010.0 6/ 7 $$ .............KEY.............. WCI - WIND CHILL TC - TEMPERATURE IN CELSIUS VSB - VISIBILITY IN MILES HX - HEAT INDEX FAIR- INDICATES FEW OR NO CLOUDS BELOW 12,000 FT, WITH NO SIGNIFICANT WEATHER AND/OR OBSTRUCTIONS TO VISIBILITY.

USA.gov is the U.S. government's official web portal to all federal, state and local government web resources and services.